Weather in Puksa

Russia / Arkhangel'skaya Oblast'     62°36′10″N   40°18′49″E
temp.,
°C
wind,
m/s
gust,
m/s
humid.,
%
clouds,
%
prec.,
mm/h
press.,
hPa
HPBL,
m
15 april, thu
thu1500:00+1nnw2892100 0.0 1021280
03:00−1nnw288958 0.0 1024243
06:00−2nnw27945 0.0 1026178
09:00+3nnw25684 0.0 1028593
12:00+6nnw34522 0.0 10291233
15:00+6nnw34505 0.0 10301484
18:00+5n25632 0.0 1030282
21:000nne11862 0.0 103210
16 april, fri
fri1600:00−1w00862 0.0 103310
03:00−2sw11873 0.0 103310
06:00−1sw23825 0.0 103464
09:00+5w24600 0.0 1034472
12:00+8wnw34535 0.0 10331013
15:00+9nnw34525 0.0 10331384
18:00+7n36665 0.0 1033334
21:00+2n24895 0.0 103585
17 april, sat
sat1700:000nne27893 0.0 1035150
03:00−1nne24925 0.0 103680
06:000nne11865 0.0 103642
09:00+5nw126013 0.0 1036382
12:00+8nw23515 0.0 1035849
15:00+10nw344463 0.0 10331313
18:00+9nnw25545 0.0 1032209
21:00+4nnw268211 0.0 1033129
18 april, sun
sun1800:00+2n26855 0.0 1033120
03:00+1n268991 0.0 1033124
06:00+1ne27928 0.0 1034234
09:00+4ne347687 0.0 1035747
12:00+5ene236480 0.0 1035985
15:00+8ene33425 0.0 10351351
18:00+6ene24445 0.0 1035741
21:00+2e246321 0.0 103678
19 april, mon
mon1900:00+1e22835 0.0 103520
03:000se11825 0.0 103611
06:00+1sse12765 0.0 103661
09:00+5s22585 0.0 1035477
12:00+9s22485 0.0 10341160
15:00+10s22435 0.0 10331420
18:00+9sse12495 0.0 1032207
21:00+5se22645 0.0 103331